Regional Weather Roundup
Issued by NWS

Home | Current Version | Previous Version | Graphics & Text | Print | Product List | Glossary On
Versions: 1 2 3 4 5 6 7 8 9 10 11 12 13 14 15 16 17 18 19 20 21 22 23 24 25 26 27 28 29 30 31 32 33 34 35 36 37 38 39 40 41 42 43 44 45 46 47 48 49 50
735
ASUS45 KCYS 170910
RWRWY

WYOMING REGIONAL WEATHER ROUNDUP
NATIONAL WEATHER SERVICE CHEYENNE WY
200 AM MST WED JAN 17 2018

NOTE:  "FAIR" INDICATES FEW OR NO CLOUDS BELOW 12,000 FEET
WITH NO SIGNIFICANT WEATHER AND/OR OBSTRUCTIONS TO VISIBILITY.

WYZ001-171000-
YELLOWSTONE NATIONAL PARK

CITY           SKY/WX    TMP DP  RH WIND       PRES   REMARKS
LK YELLOWSTONE   N/A      3   1  91 CALM      30.36R
W YELLOWSTONE  NOT AVBL

$$
WYZ002>013-054>058-071-098>099-171000-
NORTHERN WYOMING

CITY           SKY/WX    TMP DP  RH WIND       PRES   REMARKS
JACKSON        FAIR       3   0  87 CALM      30.39R
CODY           FAIR      19  11  70 CALM      30.20R
GREYBULL       FAIR      -3  -7  82 N5        30.27S WCI -13
WORLAND        FAIR      -5  -8  87 SW5       30.24F WCI -16
SHERIDAN       FAIR       9   1  70 S6        30.18R WCI  -1
BUFFALO        FAIR      34  -2  21 N7        30.16R WCI  28
GILLETTE         N/A     20   7  57 SE3       30.17R
HULETT         FAIR      19   0  42 W7        30.16S WCI  10
NEWCASTLE      FAIR      14   1  57 N3        30.20S

$$
WYZ014>020-022>026-101>103-171000-
CENTRAL WYOMING

CITY           SKY/WX    TMP DP  RH WIND       PRES   REMARKS
BIG PINEY      FAIR      10   6  84 CALM      30.29S
PINEDALE       PTSUNNY    5   1  85 W3        30.29S
DUBOIS         FAIR      27  12  54 NW13      30.21S WCI  16
LANDER         FAIR      12   9  87 SE3       30.25R
RIVERTON       FAIR      11   5  77 CALM      30.25S
CASPER         FAIR      28   8  43 SW21G29   30.19R WCI  15
DOUGLAS        FAIR       4   1  88 SE5       30.21S WCI  -5

$$
WYZ021-027>030-104>119-171000-
SOUTHERN WYOMING

CITY           SKY/WX    TMP DP  RH WIND       PRES   REMARKS
EVANSTON       CLOUDY    27  18  69 CALM      30.31S
FORT BRIDGER   CLOUDY    30  19  62 W9        30.32S WCI  22
ROCK SPRINGS   FAIR      20   8  60 S7        30.29R WCI  11
DIXON            N/A     15   2  58 E9        30.36S WCI   3
RAWLINS        FAIR      20   3  48 VRB3      30.28S
SARATOGA       FAIR      10   0  61 CALM      30.30S
LARAMIE        FAIR       6  -4  63 NE3       30.22R
CHEYENNE       FAIR      13   1  59 CALM      30.18R
TORRINGTON     FAIR       5   3  91 W6        30.22R WCI  -6

$$




USA.gov is the U.S. government's official web portal to all federal, state and local government web resources and services.